User: anonymous   Login
Location: Unspecified
(0.0000°N, 0.0000°E)
Time: 19:27:40
(UTC+00:00)
Language:

MOZHAYETS - Orbit

View from above orbital plane
View from above orbital plane
View from above satellite
View from above satellite

Ground track
Ground track

The orbit data is extracted from the following two-line orbital elements,

1 27560U 02054B   18351.39424683  .00000010  00000-0  12574-4 0  9992
2 27560  98.2811 125.7873 0040399 209.2967 150.5979 14.57746709851868
Epoch (UTC): 17 December 2018 09:27:42
Eccentricity: 0.0040399
inclination: 98.2811°
perigee height: 672 km
apogee height: 729 km
right ascension of ascending node: 125.7873°
argument of perigee: 209.2967°
revolutions per day: 14.57746709
mean anomaly at epoch: 150.5979°
orbit number at epoch: 85186

The dashed part of the orbit path shows where the satellite is in the earth's shadow,  

DLR